Early, TX

2:08 PM CST on December 02, 2016 (GMT -0600)
Brownwood Regional

Weather History for KBWD - May, 2014

Change the Weather History Date:

Tuesday, May 6, 2014

  Actual Average (KABI) Record (KABI)
Temperature  
Mean Temperature 78 °F 70 °F  
Max Temperature 95 °F 82 °F 106 °F (2000)
Min Temperature 62 °F 58 °F 41 °F (1999)
Degree Days  
Heating Degree Days 0 1  
Month to date heating degree days 6  
Since 1 July heating degree days 2548  
Cooling Degree Days 14 6  
Month to date cooling degree days 35  
Year to date cooling degree days 168  
Growing Degree Days 28 (Base 50)    
Moisture  
Dew Point 58 °F    
Average Humidity 46    
Maximum Humidity 77    
Minimum Humidity 25    
Precipitation  
Precipitation 0.00 in 0.09 in 4.22 in (1932)
Month to date precipitation 0.52  
Year to date precipitation 6.28  
Sea Level Pressure  
Sea Level Pressure 29.73 in    
Wind  
Wind Speed 12 mph (SSE)    
Max Wind Speed 23 mph    
Max Gust Speed 32 mph    
Visibility 10 miles    
Events      
T = Trace of Precipitation, MM = Missing Value Source: NWS Daily Summary

Daily Weather History Graph

Daily Weather History Graph

Search for Another Location

Airport or City:

Trip Planner

Search our weather history database for the weather conditions in past years. The results will help you decide how hot, cold, wet, or windy it might be!

Date:

Astronomy

May. 06, 2014 Rise Set
Actual Time 6:45 AM CDT 8:19 PM CDT
Civil Twilight 6:19 AM CDT 8:45 PM CDT
Nautical Twilight 5:48 AM CDT 9:17 PM CDT
Astronomical Twilight 5:15 AM CDT 9:50 PM CDT
Moon 12:58 PM CDT (5/6) 1:43 AM CDT (5/6)
Length of Visible Light 14h 26m
Length of Day
13h 33m
Waxing Crescent, 46% of the Moon is Illuminated
May 6
Waxing Crescent
May 6
First Quarter
May 14
Full
May 21
Last Quarter
May 28
New

Hourly Weather History & Observations

Time (CDT) Temp. Heat Index Dew Point Humidity Pressure Visibility Wind Dir Wind Speed Gust Speed Precip Events Conditions
12:15 AM 78.8 °F - 53.6 °F 42% 29.81 in 10.0 mi South 11.5 mph 20.7 mph N/A   Partly Cloudy
12:35 AM 77.0 °F - 53.6 °F 44% 29.81 in 10.0 mi SSE 8.1 mph - N/A   Clear
12:55 AM 75.2 °F - 53.6 °F 47% 29.81 in 10.0 mi SSE 8.1 mph - N/A   Clear
1:15 AM 75.2 °F - 55.4 °F 50% 29.80 in 10.0 mi South 9.2 mph - N/A   Clear
1:35 AM 75.2 °F - 55.4 °F 50% 29.79 in 10.0 mi SSE 10.4 mph - N/A   Clear
1:55 AM 73.4 °F - 55.4 °F 53% 29.79 in 10.0 mi SSE 5.8 mph - N/A   Clear
2:15 AM 71.6 °F - 55.4 °F 57% 29.78 in 10.0 mi SSE 5.8 mph - N/A   Clear
2:35 AM 71.6 °F - 57.2 °F 60% 29.77 in 10.0 mi SE 8.1 mph - N/A   Clear
6:55 AM 62.6 °F - 55.4 °F 77% 29.79 in 10.0 mi SSE 3.5 mph - N/A   Clear
7:15 AM 62.6 °F - 55.4 °F 77% 29.80 in 10.0 mi Calm Calm - N/A   Clear
7:35 AM 64.4 °F - 57.2 °F 77% 29.80 in 10.0 mi SSE 4.6 mph - N/A   Clear
7:55 AM 66.2 °F - 57.2 °F 73% 29.80 in 10.0 mi SSE 5.8 mph - N/A   Clear
8:15 AM 68.0 °F - 57.2 °F 68% 29.80 in 10.0 mi SSE 6.9 mph - N/A   Clear
8:55 AM 71.6 °F - 57.2 °F 60% 29.80 in 10.0 mi South 9.2 mph - N/A   Clear
9:15 AM 73.4 °F - 59.0 °F 61% 29.80 in 10.0 mi South 11.5 mph 19.6 mph N/A   Clear
9:35 AM 75.2 °F - 59.0 °F 57% 29.82 in 10.0 mi SW 13.8 mph - N/A   Clear
9:55 AM 75.2 °F - 59.0 °F 57% 29.81 in 10.0 mi SSW 12.7 mph 19.6 mph N/A   Clear
10:15 AM 77.0 °F - 60.8 °F 57% 29.81 in 10.0 mi SSW 11.5 mph - N/A   Clear
10:35 AM 77.0 °F - 59.0 °F 54% 29.80 in 10.0 mi SSE 13.8 mph - N/A   Clear
10:55 AM 80.6 °F 81.5 °F 60.8 °F 51% 29.79 in 10.0 mi South 15.0 mph 21.9 mph N/A   Clear
11:15 AM 80.6 °F 81.5 °F 60.8 °F 51% 29.79 in 10.0 mi SSE 15.0 mph 19.6 mph N/A   Clear
11:35 AM 82.4 °F 82.9 °F 60.8 °F 48% 29.78 in 10.0 mi South 15.0 mph 20.7 mph N/A   Clear
11:55 AM 84.2 °F 83.8 °F 59.0 °F 42% 29.77 in 10.0 mi South 13.8 mph 24.2 mph N/A   Clear
12:15 PM 86.0 °F 85.4 °F 59.0 °F 40% 29.76 in 10.0 mi South 18.4 mph 23.0 mph N/A   Clear
12:35 PM 86.0 °F 84.9 °F 57.2 °F 37% 29.75 in 10.0 mi South 13.8 mph 23.0 mph N/A   Clear
12:55 PM 87.8 °F 86.5 °F 57.2 °F 35% 29.75 in 10.0 mi South 16.1 mph 20.7 mph N/A   Clear
1:15 PM 89.6 °F 88.1 °F 57.2 °F 33% 29.73 in 10.0 mi SSW 18.4 mph 26.5 mph N/A   Clear
1:35 PM 91.4 °F 89.9 °F 57.2 °F 31% 29.73 in 10.0 mi South 18.4 mph 27.6 mph N/A   Clear
1:55 PM 91.4 °F 89.9 °F 57.2 °F 31% 29.72 in 10.0 mi South 15.0 mph 21.9 mph N/A   Clear
2:15 PM 89.6 °F 88.1 °F 57.2 °F 33% 29.71 in 10.0 mi SSW 16.1 mph 27.6 mph N/A   Clear
2:35 PM 91.4 °F 89.4 °F 55.4 °F 29% 29.70 in 10.0 mi South 16.1 mph 25.3 mph N/A   Clear
3:15 PM 93.2 °F 91.3 °F 55.4 °F 28% 29.68 in 10.0 mi South 16.1 mph 23.0 mph N/A   Clear
3:35 PM 93.2 °F 91.3 °F 55.4 °F 28% 29.67 in 10.0 mi SSE 16.1 mph 27.6 mph N/A   Clear
3:55 PM 93.2 °F 91.3 °F 55.4 °F 28% 29.66 in 10.0 mi SSE 16.1 mph 25.3 mph N/A   Clear
4:15 PM 95.0 °F 92.7 °F 53.6 °F 25% 29.66 in 10.0 mi South 19.6 mph 31.1 mph N/A   Clear
4:35 PM 95.0 °F 92.7 °F 53.6 °F 25% 29.65 in 10.0 mi SSE 17.3 mph 31.1 mph N/A   Clear
4:55 PM 95.0 °F 92.7 °F 53.6 °F 25% 29.64 in 10.0 mi South 19.6 mph 28.8 mph N/A   Clear
5:15 PM 95.0 °F 92.7 °F 53.6 °F 25% 29.64 in 10.0 mi SSE 16.1 mph 31.1 mph N/A   Clear
5:35 PM 93.2 °F 92.6 °F 59.0 °F 32% 29.64 in 10.0 mi SSE 21.9 mph 32.2 mph N/A   Clear
5:55 PM 91.4 °F 91.4 °F 60.8 °F 36% 29.64 in 10.0 mi SE 21.9 mph 27.6 mph N/A   Clear
6:15 PM 89.6 °F 89.5 °F 60.8 °F 38% 29.64 in 10.0 mi SSE 21.9 mph 29.9 mph N/A   Clear
6:35 PM 89.6 °F 89.5 °F 60.8 °F 38% 29.63 in 10.0 mi SE 23.0 mph 31.1 mph N/A   Clear
6:55 PM 87.8 °F 87.6 °F 60.8 °F 40% 29.64 in 10.0 mi SE 23.0 mph 27.6 mph N/A   Clear
7:15 PM 86.0 °F 86.1 °F 60.8 °F 43% 29.64 in 10.0 mi SE 19.6 mph 25.3 mph N/A   Clear
7:35 PM 86.0 °F 85.4 °F 59.0 °F 40% 29.65 in 10.0 mi SE 23.0 mph 29.9 mph N/A   Clear
7:55 PM 84.2 °F 83.8 °F 59.0 °F 42% 29.65 in 10.0 mi SE 18.4 mph 26.5 mph N/A   Clear
8:15 PM 84.2 °F 83.8 °F 59.0 °F 42% 29.66 in 10.0 mi SSE 20.7 mph 31.1 mph N/A   Clear
8:35 PM 84.2 °F 83.8 °F 59.0 °F 42% 29.67 in 10.0 mi SE 21.9 mph 27.6 mph N/A   Clear
8:55 PM 82.4 °F 82.5 °F 59.0 °F 45% 29.68 in 10.0 mi SE 18.4 mph 32.2 mph N/A   Partly Cloudy
9:15 PM 82.4 °F 82.5 °F 59.0 °F 45% 29.69 in 10.0 mi SSE 20.7 mph 31.1 mph N/A   Clear
9:35 PM 80.6 °F 81.1 °F 59.0 °F 48% 29.69 in 10.0 mi SSE 16.1 mph 25.3 mph N/A   Clear
10:15 PM 78.8 °F - 60.8 °F 54% 29.72 in 10.0 mi SSE 17.3 mph 24.2 mph N/A   Partly Cloudy
10:55 PM 77.0 °F - 62.6 °F 61% 29.74 in 10.0 mi SSE 15.0 mph 25.3 mph N/A   Partly Cloudy
11:15 PM 77.0 °F - 62.6 °F 61% 29.74 in 10.0 mi North - - N/A   Partly Cloudy
11:35 PM 75.2 °F - 62.6 °F 65% 29.75 in 10.0 mi SSE 12.7 mph 19.6 mph N/A   Clear
11:55 PM 75.2 °F - 62.6 °F 65% 29.76 in 10.0 mi SSE 16.1 mph 26.5 mph N/A   Clear